WB3IGR Weather Reports


Display with metric or nautical units.
time (UTC)temp
F
wind
direction
speed
MPH
gust
MPH
rain 1hr
in
rain 24hr
in
rain mn
in
humidity
%
barometer
mb
20260504204234 74 150 3.0 11.0 0.00 0.00 0.00 43 1010.7
20260504203733 74 297 2.0 8.0 0.00 0.00 0.00 41 1010.5
20260504203230 74 294 6.0 8.0 0.00 0.00 0.00 43 1010.5
20260504202730 74 296 5.0 9.0 0.00 0.00 0.00 42 1010.6
20260504202227 73 320 4.0 9.0 0.00 0.00 0.00 42 1010.8
20260504201724 74 257 4.0 9.0 0.00 0.00 0.00 41 1010.6
20260504201221 73 334 5.0 9.0 0.00 0.00 0.00 40 1010.9
20260504200719 73 317 6.0 8.0 0.00 0.00 0.00 41 1010.9
20260504200215 73 294 6.0 11.0 0.00 0.00 0.00 42 1011.2
20260504195711 72 268 5.0 10.0 0.00 0.00 0.00 44 1011.2
20260504195207 72 197 8.0 13.0 0.00 0.00 0.00 43 1011.3
20260504194704 71 252 5.0 10.0 0.00 0.00 0.00 43 1011.4
20260504194201 72 265 5.0 17.0 0.00 0.00 0.00 43 1011.3
20260504193657 72 243 11.0 14.0 0.00 0.00 0.00 43 1011.2
20260504193155 73 264 6.0 9.0 0.00 0.00 0.00 42 1011.4
20260504192653 72 266 6.0 13.0 0.00 0.00 0.00 43 1011.4
20260504192150 72 259 6.0 15.0 0.00 0.00 0.00 43 1011.6
20260504191649 72 299 4.0 14.0 0.00 0.00 0.00 44 1011.5
20260504191144 72 348 4.0 15.0 0.00 0.00 0.00 43 1011.8
20260504190641 72 330 5.0 10.0 0.00 0.00 0.00 42 1011.7
20260504190138 71 248 6.0 16.0 0.00 0.00 0.00 44 1011.7
20260504185634 72 245 7.0 13.0 0.00 0.00 0.00 44 1012.0
20260504185131 72 228 5.0 9.0 0.00 0.00 0.00 41 1012.0
20260504184626 72 294 5.0 9.0 0.00 0.00 0.00 41 1012.1
20260504184122 71 240 7.0 9.0 0.00 0.00 0.00 44 1011.9
20260504183619 71 208 5.0 14.0 0.00 0.00 0.00 45 1011.9
20260504183117 71 288 4.0 9.0 0.00 0.00 0.00 42 1012.0
20260504182614 71 273 6.0 15.0 0.00 0.00 0.00 44 1012.2
20260504182112 70 237 2.0 9.0 0.00 0.00 0.00 44 1012.3
20260504181609 72 314 9.0 11.0 0.00 0.00 0.00 44 1012.2
20260504181106 71 297 6.0 13.0 0.00 0.00 0.00 43 1012.4
20260504180605 71 290 6.0 13.0 0.00 0.00 0.00 45 1012.3
20260504180104 71 329 4.0 8.0 0.00 0.00 0.00 42 1012.5
20260504175601 71 200 3.0 11.0 0.00 0.00 0.00 45 1012.2
20260504175057 71 330 4.0 9.0 0.00 0.00 0.00 43 1012.5
20260504174555 70 281 6.0 14.0 0.00 0.00 0.00 46 1012.5
20260504174051 71 259 6.0 10.0 0.00 0.00 0.00 44 1012.6
20260504173548 71 239 4.0 9.0 0.00 0.00 0.00 43 1012.7
20260504173046 69 5 4.0 7.0 0.00 0.00 0.00 45 1012.8
20260504172542 70 264 11.0 13.0 0.00 0.00 0.00 45 1013.0
20260504172039 70 320 9.0 10.0 0.00 0.00 0.00 43 1012.8
20260504171536 69 258 7.0 9.0 0.00 0.00 0.00 43 1013.1
20260504171033 69 292 7.0 9.0 0.00 0.00 0.00 43 1013.3
20260504170528 69 295 9.0 11.0 0.00 0.00 0.00 43 1013.4
20260504150912 64 290 6.0 10.0 0.00 0.00 0.00 48 1014.6
20260504150409 63 217 4.0 11.0 0.00 0.00 0.00 50 1014.8
20260504140835 61 273 3.0 6.0 0.00 0.00 0.00 48 1015.2
20260504140331 60 229 3.0 4.0 0.00 0.00 0.00 51 1015.1
20260504130800 56 301 6.0 7.0 0.00 0.00 0.00 52 1015.3
20260504130256 56 237 3.0 6.0 0.00 0.00 0.00 54 1015.2
20260504120220 55 99 0.0 2.0 0.00 0.00 0.00 59 1015.6
20260504110647 46 131 0.0 1.0 0.00 0.00 0.00 71 1015.7
20260504110143 46 154 0.0 0.0 0.00 0.00 0.00 72 1015.5
20260504100609 41 214 2.0 2.0 0.00 0.00 0.00 78 1015.6
20260504100108 41 314 0.0 2.0 0.00 0.00 0.00 77 1015.5
20260504082003 44 313 0.0 1.0 0.00 0.00 0.00 69 1015.9
20260504081500 44 322 0.0 0.0 0.00 0.00 0.00 68 1015.8
20260504080950 45 322 1.0 1.0 0.00 0.00 0.00 66 1015.6
20260504080447 46 342 2.0 2.0 0.00 0.00 0.00 65 1015.9
20260504050253 53 238 3.0 6.0 0.00 0.00 0.00 50 1015.6
20260504045750 52 233 4.0 7.0 0.00 0.00 0.00 49 1015.7
20260504045245 53 273 5.0 7.0 0.00 0.00 0.00 50 1015.8
20260504044743 52 257 4.0 7.0 0.00 0.00 0.00 50 1015.7
20260504044241 52 265 5.0 7.0 0.00 0.00 0.00 50 1015.6
20260504043737 52 231 2.0 7.0 0.00 0.00 0.00 50 1015.7
20260504043234 52 256 3.0 6.0 0.00 0.00 0.00 50 1015.7
20260504042732 52 282 4.0 6.0 0.00 0.00 0.00 50 1015.5
20260504042228 52 243 4.0 8.0 0.00 0.00 0.00 50 1015.9
20260504041724 52 251 4.0 8.0 0.00 0.00 0.00 50 1015.7
20260504041220 52 255 5.0 7.0 0.00 0.00 0.00 49 1015.6
20260504040717 53 244 4.0 7.0 0.00 0.00 0.00 50 1015.5
20260504040214 53 255 5.0 7.0 0.00 0.00 0.00 49 1015.5
20260504035710 53 254 4.0 8.0 0.00 0.00 0.00 48 1015.4
20260504035208 53 266 3.0 8.0 0.00 0.00 0.00 49 1015.6
20260504034705 53 226 6.0 7.0 0.00 0.00 0.00 48 1015.4
20260504034202 53 248 2.0 7.0 0.00 0.00 0.00 49 1015.4
20260504033700 53 229 6.0 8.0 0.00 0.00 0.00 48 1015.3
20260504033157 53 261 4.0 8.0 0.00 0.00 0.00 49 1015.4
20260504032653 53 244 7.0 8.0 0.00 0.00 0.00 48 1015.3
20260504032151 53 208 4.0 8.0 0.00 0.00 0.00 49 1015.2
20260504031648 53 252 5.0 7.0 0.00 0.00 0.00 49 1015.1
20260504031144 53 230 3.0 6.0 0.00 0.00 0.00 50 1015.2
20260504030641 53 242 4.0 6.0 0.00 0.00 0.00 49 1015.2
20260504030138 53 259 3.0 6.0 0.00 0.00 0.00 49 1015.2
20260504025634 53 247 6.0 8.0 0.00 0.00 0.00 49 1015.2
20260504025131 53 221 2.0 6.0 0.00 0.00 0.00 49 1015.2
20260504024628 53 238 3.0 7.0 0.00 0.00 0.00 48 1015.2
20260504024125 53 252 6.0 7.0 0.00 0.00 0.00 48 1015.2
20260504023621 53 245 4.0 6.0 0.00 0.00 0.00 49 1015.2
20260504023118 53 259 4.0 8.0 0.00 0.00 0.00 49 1015.1
20260504022614 53 200 2.0 6.0 0.00 0.00 0.00 49 1015.1
20260504022110 53 253 5.0 7.0 0.00 0.00 0.00 49 1015.3
20260504021608 52 231 3.0 6.0 0.00 0.00 0.00 49 1015.3
20260504021105 52 234 3.0 4.0 0.00 0.00 0.00 50 1015.4
20260504020602 53 245 3.0 4.0 0.00 0.00 0.00 49 1015.3
20260504020058 53 274 4.0 6.0 0.00 0.00 0.00 49 1015.3
20260504015554 53 234 2.0 4.0 0.00 0.00 0.00 49 1015.2
20260504015050 53 235 2.0 4.0 0.00 0.00 0.00 50 1015.3
20260504014547 53 250 4.0 6.0 0.00 0.00 0.00 49 1015.2
20260504014044 53 233 3.0 4.0 0.00 0.00 0.00 49 1015.1
20260504013541 52 235 2.0 3.0 0.00 0.00 0.00 51 1015.0
20260504013038 53 227 3.0 4.0 0.00 0.00 0.00 50 1015.3
20260504012536 53 211 2.0 3.0 0.00 0.00 0.00 51 1015.1
20260504012033 53 227 3.0 4.0 0.00 0.00 0.00 50 1015.0
20260504011530 52 243 2.0 4.0 0.00 0.00 0.00 51 1015.3
20260504011026 52 225 2.0 3.0 0.00 0.00 0.00 51 1014.9
20260504010522 53 243 2.0 3.0 0.00 0.00 0.00 51 1015.0
20260504010018 52 253 3.0 4.0 0.00 0.00 0.00 50 1015.2
20260504005515 52 226 4.0 6.0 0.00 0.00 0.00 51 1014.9
20260504005012 52 248 2.0 4.0 0.00 0.00 0.00 52 1015.0
20260504004510 52 220 2.0 3.0 0.00 0.00 0.00 52 1015.2
20260504004007 52 261 2.0 3.0 0.00 0.00 0.00 53 1014.9
20260504003503 53 262 2.0 4.0 0.00 0.00 0.00 51 1014.9
20260504003000 53 256 4.0 4.0 0.00 0.00 0.00 51 1014.8
20260504002457 53 239 2.0 4.0 0.00 0.00 0.00 51 1014.6
20260504001954 53 258 3.0 4.0 0.00 0.00 0.00 50 1014.7
20260504001451 54 260 3.0 4.0 0.00 0.00 0.00 50 1014.6
20260504000948 54 240 2.0 3.0 0.00 0.00 0.00 50 1014.4
20260504000445 55 261 2.0 4.0 0.00 0.00 0.00 48 1014.5
20260503235942 55 298 4.0 6.0 0.00 0.00 0.00 47 1014.3
20260503235440 55 246 2.0 4.0 0.00 0.00 0.00 48 1014.4
20260503234937 56 304 2.0 3.0 0.00 0.00 0.00 47 1014.3
20260503234435 57 277 2.0 3.0 0.00 0.00 0.00 46 1014.1
20260503233933 57 279 2.0 6.0 0.00 0.00 0.00 46 1014.3
20260503233429 58 293 2.0 4.0 0.00 0.00 0.00 44 1014.0
20260503232925 58 264 2.0 4.0 0.00 0.00 0.00 43 1014.3
20260503232422 59 298 6.0 8.0 0.00 0.00 0.00 42 1014.0
20260503231920 59 299 4.0 7.0 0.00 0.00 0.00 42 1014.1
20260503231417 59 303 4.0 4.0 0.00 0.00 0.00 42 1014.1
20260503230913 59 322 3.0 6.0 0.00 0.00 0.00 41 1014.3
20260503230410 60 327 5.0 8.0 0.00 0.00 0.00 40 1013.8
20260503225908 60 21 4.0 11.0 0.00 0.00 0.00 40 1013.9
20260503225404 60 247 7.0 10.0 0.00 0.00 0.00 41 1014.1
20260503224900 60 336 4.0 10.0 0.00 0.00 0.00 40 1014.0
20260503224357 60 268 5.0 9.0 0.00 0.00 0.00 40 1014.0
20260503223855 60 325 5.0 16.0 0.00 0.00 0.00 41 1014.0
20260503223353 60 264 3.0 13.0 0.00 0.00 0.00 40 1013.9
20260503222848 61 276 10.0 13.0 0.00 0.00 0.00 39 1013.7
20260503222347 60 322 5.0 8.0 0.00 0.00 0.00 39 1013.8
20260503221844 58 294 5.0 10.0 0.00 0.00 0.00 41 1013.9
20260503221343 59 298 9.0 15.0 0.00 0.00 0.00 41 1014.0
20260503220838 58 316 6.0 8.0 0.00 0.00 0.00 42 1013.9
20260503220335 58 322 6.0 8.0 0.00 0.00 0.00 41 1013.9
20260503215832 59 315 5.0 11.0 0.00 0.00 0.00 41 1014.1
20260503215330 59 327 2.0 7.0 0.00 0.00 0.00 42 1013.9
20260503214827 59 339 2.0 7.0 0.00 0.00 0.00 41 1014.0
20260503214324 58 323 2.0 6.0 0.00 0.00 0.00 41 1013.9
20260503213821 58 352 4.0 10.0 0.00 0.00 0.00 40 1013.9
20260503213319 60 290 5.0 10.0 0.00 0.00 0.00 40 1013.8
20260503212810 62 7 3.0 11.0 0.00 0.00 0.00 38 1013.7
20260503212308 62 354 6.0 10.0 0.00 0.00 0.00 39 1013.8
20260503211805 61 290 5.0 16.0 0.00 0.00 0.00 40 1013.7
20260503211301 61 26 6.0 14.0 0.00 0.00 0.00 39 1013.6
20260503210756 61 324 4.0 10.0 0.00 0.00 0.00 38 1013.9
20260503210254 61 355 11.0 14.0 0.00 0.00 0.00 38 1013.7
20260503205749 61 282 4.0 4.0 0.00 0.00 0.00 40 1013.8
20260503205245 60 286 5.0 10.0 0.00 0.00 0.00 39 1013.9
20260503204742 62 284 8.0 13.0 0.00 0.00 0.00 39 1013.8